RH
79 83 85 84 81 74 72 82 85 84 70 71 73 70 65 64 61 53 55 68 82 79 83 86 86 82 94 85 83 94 86 65 54 65 77 70 65 77 91 88 88 90 92
74 80 82 85 78 80 74 73 86 88 85 79 77 79 74 65 59 51 65 57 69 86 84 84 81 82 91 80 89 94 83 65 58 64 67 65 60 59 83 86 92 96 93
75 78 82 76 70 79 81 80 76 78 82 85 85 85 85 78 68 56 68 76 59 67 82 86 80 81 74 71 78 80 76 62 62 72 80 79 63 53 66 77 87 95 86
79 78 75 69 76 82 84 84 83 80 79 80 83 85 86 90 86 77 56 74 88 71 84 88 87 84 75 65 77 74 66 58 59 67 75 82 80 60 57 72 82 95 92
67 70 73 76 82 86 87 87 87 87 84 82 80 80 82 81 87 91 85 60 68 78 78 88 89 87 80 64 67 74 64 56 61 69 72 70 78 63 71 86 92 90 81
50 50 80 84 83 82 85 86 87 86 84 83 82 80 79 78 78 82 85 88 78 54 69 84 90 90 89 72 64 71 66 57 57 67 69 73 60 66 83 87 79 79 89
44 45 45 62 80 87 88 86 87 87 86 84 82 80 81 80 76 75 75 82 84 82 62 73 84 89 90 83 69 69 69 57 55 64 68 72 62 64 72 81 87 82 77
42 41 40 38 38 41 50 68 81 85 86 88 87 84 82 80 79 79 78 76 78 83 83 74 70 81 86 87 80 69 70 62 58 53 64 68 64 68 84 80 85 89 86
39 37 36 36 35 36 35 36 36 38 42 48 59 70 83 86 84 83 82 81 77 75 77 79 79 75 80 85 86 78 71 70 68 60 58 68 69 62 72 78 86 93 92
32 31 31 33 33 34 33 30 30 29 33 33 32 35 37 38 49 61 83 88 85 82 83 84 82 81 80 79 84 85 80 77 81 75 59 62 70 69 76 70 84 94 93
32 31 31 30 31 31 30 33 32 31 33 33 35 35 35 36 38 38 60 56 70 75 84 85 86 86 87 86 85 88 91 87 80 76 72 59 62 73 80 78 72 92 93
34 32 32 31 31 30 28 31 30 30 35 33 32 33 34 34 34 37 36 36 38 44 49 56 76 85 88 93 90 87 91 93 90 83 76 69 66 71 80 70 66 76 86
29 30 34 36 35 32 31 29 30 34 36 36 37 34 36 35 34 30 32 33 34 34 49 62 65 66 81 87 92 91 90 89 90 88 82 74 71 74 80 72 65 60 86
28 33 36 38 39 38 41 40 39 41 43 44 46 46 44 41 43 41 38 36 35 34 34 34 35 56 79 75 77 84 93 92 90 88 84 80 73 72 72 72 66 64 58
28 32 37 42 44 46 48 51 54 54 54 55 55 54 54 54 53 51 49 44 40 38 36 34 33 33 34 40 63 78 79 85 90 89 88 85 76 72 72 70 68 69 73
26 32 42 46 51 52 55 58 58 56 58 58 56 58 59 61 62 62 61 58 53 49 43 42 40 38 36 34 34 35 58 78 79 84 84 85 86 79 73 71 68 72 84
27 36 45 49 52 53 56 52 43 43 48 47 55 61 57 62 65 66 67 67 67 66 64 55 48 44 41 37 36 34 35 36 50 73 77 78 84 88 85 76 76 71 72
29 41 45 48 53 55 52 41 34 34 42 45 51 44 56 65 65 67 72 74 74 73 70 67 63 59 54 49 45 41 39 38 38 40 60 72 73 79 81 83 83 79 80
36 42 50 57 58 53 46 37 34 36 39 42 43 38 48 46 53 58 55 60 68 76 75 72 69 64 60 58 55 51 49 46 42 41 41 43 68 77 78 81 82 85 86
52 55 58 60 56 52 47 39 35 32 35 37 33 41 38 44 45 41 41 48 53 56 67 74 75 70 65 61 59 59 57 53 47 46 45 43 44 51 63 78 78 73 72
53 55 58 56 56 54 49 46 40 32 28 27 33 41 46 44 40 44 65 71 71 68 68 71 73 74 70 66 64 61 60 58 53 49 49 47 44 42 40 40 43 69 71
48 55 58 57 56 54 53 52 50 43 37 35 38 45 39 38 57 72 75 75 75 75 75 74 74 80 73 63 71 72 84 64 53 51 50 54 51 50 52 52 51 53 56
52 57 57 57 57 57 56 56 50 41 36 31 35 34 36 54 71 75 74 76 78 79 80 83 77 76 85 74 66 72 78 74 68 55 52 52 52 52 52 50 53 52 54
50 54 56 57 57 58 62 58 55 46 44 38 41 40 44 67 76 76 77 82 82 83 87 87 89 88 88 80 73 70 72 72 76 72 56 55 54 53 54 56 56 55 53
42 44 48 54 58 63 65 63 59 51 42 38 38 40 53 73 78 78 81 86 88 85 83 84 86 89 88 82 74 77 75 71 68 79 85 74 62 59 58 58 55 53 48
40 43 45 50 54 59 64 65 61 55 44 40 36 40 57 74 74 80 82 86 87 86 84 84 83 82 84 79 73 78 81 83 81 83 89 83 80 71 68 63 61 55 53
Wind_Speed
2 1 2 3 1 1 1 4 1 3 2 2 2 3 3 3 3 3 3 2 3 2 2 3 4 4 5 5 6 6 5 6 7 8 8 8 7 7 10 10 12 13 13
3 2 1 2 3 2 2 1 2 3 2 2 2 2 3 3 2 1 2 1 2 2 1 1 1 2 2 3 5 4 4 5 6 8 7 7 5 5 6 9 11 11 10
2 4 0 3 3 2 2 2 2 3 4 4 3 2 3 3 3 2 1 1 0 3 2 4 4 2 1 2 2 2 3 4 4 5 6 5 5 4 5 5 7 8 8
5 2 2 4 2 3 2 2 3 4 5 6 5 5 4 4 4 4 3 3 2 3 3 3 6 5 3 2 3 3 3 3 4 3 3 6 4 2 4 5 5 8 7
5 3 2 3 3 2 3 4 5 5 6 7 7 7 7 7 7 6 5 5 6 5 6 6 8 7 6 5 5 5 4 4 6 3 1 3 9 3 5 6 6 7 5
5 4 5 4 3 2 1 2 4 5 6 7 8 8 8 8 7 7 8 8 7 8 7 7 10 10 9 8 7 7 6 6 6 5 2 3 6 5 5 6 6 8 8
8 4 6 5 4 3 2 1 2 3 4 5 7 8 9 10 10 10 9 10 10 9 8 8 10 11 11 11 10 10 9 8 8 8 6 5 9 7 5 9 9 8 8
6 3 4 5 4 4 4 3 2 2 3 4 5 6 8 10 11 11 12 12 12 12 11 11 11 13 14 13 13 12 12 11 11 10 10 7 12 9 10 10 12 10 9
3 3 2 1 2 3 4 5 5 5 5 6 6 7 8 8 10 11 12 13 14 15 14 14 14 14 16 16 15 15 15 15 14 13 12 10 13 14 13 13 14 14 12
3 4 4 3 3 4 3 5 6 8 7 8 8 9 9 10 10 10 11 13 15 16 17 19 18 16 17 18 18 18 18 18 19 17 16 17 13 19 15 14 14 16 16
7 7 8 6 6 6 3 3 7 9 8 7 7 8 10 10 11 9 10 12 12 16 17 18 20 20 19 19 20 20 20 22 23 23 22 20 20 18 19 18 16 17 17
9 6 5 7 8 9 7 9 9 7 7 9 9 11 12 13 15 15 14 14 14 15 16 17 21 21 21 22 23 23 24 26 26 27 26 22 20 21 23 22 19 21 21
5 4 6 9 11 10 10 10 9 9 10 10 11 11 11 13 16 16 16 14 14 13 15 17 16 17 20 24 27 27 27 28 29 29 28 25 23 23 27 27 23 22 26
6 4 7 11 12 10 11 11 11 11 11 12 11 13 15 15 13 15 15 15 16 15 15 14 14 15 21 21 23 25 26 28 29 29 30 28 26 26 30 31 28 25 25
9 9 10 11 13 11 11 11 11 12 12 12 13 14 13 13 14 15 16 17 18 18 18 19 20 20 20 18 20 24 24 28 31 29 30 29 25 25 31 35 32 28 26
12 10 9 10 10 10 9 9 10 10 10 12 11 11 11 12 14 14 16 18 20 19 20 19 19 21 22 22 22 21 21 26 28 30 32 32 31 30 28 34 34 31 27
14 11 10 8 9 10 10 10 10 10 10 11 10 10 11 11 11 13 15 16 16 16 17 20 22 22 23 24 25 26 25 24 24 26 28 29 33 30 30 34 34 35 32
19 18 13 10 9 9 10 11 11 9 9 10 9 11 9 9 11 12 13 14 15 16 16 17 18 20 21 22 25 26 27 26 25 23 23 28 27 28 32 33 35 35 35
23 16 8 7 7 7 9 10 9 9 9 10 11 11 10 12 11 12 12 13 15 16 16 17 18 18 21 23 25 24 24 23 25 26 24 23 22 26 27 27 29 32 36
11 5 3 3 6 8 10 11 10 10 8 12 13 12 14 11 13 15 15 16 16 15 15 15 16 17 18 18 19 20 23 25 29 29 29 27 26 22 20 23 25 28 30
6 0 3 4 7 10 13 14 10 11 11 10 12 10 11 13 16 15 15 16 16 16 15 14 17 16 15 15 17 20 18 21 21 22 24 25 26 27 30 32 33 31 31
2 4 5 8 9 8 11 13 14 16 12 14 12 10 15 14 14 13 14 17 18 18 18 14 14 15 14 15 12 14 3 8 12 14 16 12 13 15 16 17 21 28 32
6 9 8 8 9 11 11 12 13 14 14 11 11 15 14 13 14 15 16 16 17 17 14 12 13 13 13 15 14 6 3 2 8 15 20 21 18 20 19 20 17 19 17
6 7 9 9 11 13 13 14 13 14 16 15 15 16 14 13 12 14 17 14 13 12 11 11 11 12 14 12 15 10 12 12 3 5 7 17 18 16 16 16 18 18 19
8 9 10 12 14 14 15 15 14 16 15 15 16 15 13 11 13 15 13 12 13 13 13 13 14 14 13 13 16 16 17 17 17 2 5 5 25 23 21 24 26 26 27
10 11 11 12 15 15 16 16 17 17 16 16 16 15 14 13 14 12 12 11 11 11 13 14 14 14 15 14 17 19 16 8 8 4 3 4 8 19 22 26 26 27 24
Wind_Direction
143 114 41 36 287 241 105 117 12 14 29 43 47 43 41 38 40 60 73 114 112 90 79 87 78 66 76 78 86 123 99 76 78 105 108 99 92 90 69 80 96 99 101
99 129 350 328 320 230 208 187 207 245 322 338 358 22 22 19 23 44 58 108 186 152 100 69 157 65 91 100 119 132 118 87 90 109 104 104 89 106 97 86 99 100 96
150 155 76 1 329 209 209 244 269 276 286 296 310 330 349 355 346 331 333 1 212 218 250 209 230 287 172 153 154 167 148 122 125 133 134 118 102 78 147 105 104 103 106
113 97 60 8 56 156 195 245 262 268 277 284 285 293 301 304 313 317 304 281 283 266 264 233 223 258 265 224 206 201 194 160 171 193 240 254 195 95 147 156 121 119 112
85 42 61 67 90 160 225 243 255 261 262 267 274 281 284 289 286 288 292 289 271 270 276 244 239 253 263 250 233 231 221 192 176 186 15 175 179 177 161 148 149 144 136
92 57 70 81 84 100 162 237 258 261 258 256 257 261 268 274 274 269 274 276 280 275 278 247 244 250 255 253 244 240 238 218 199 190 237 216 234 196 195 192 180 172 162
97 68 63 62 62 57 49 335 278 266 266 265 265 264 263 270 275 274 276 272 267 272 272 261 248 252 251 249 247 242 245 236 227 229 235 239 231 241 215 190 190 196 200
118 84 59 48 45 37 21 4 339 322 304 294 278 271 269 271 274 272 270 269 267 261 265 265 258 251 252 249 247 244 244 241 237 241 236 280 224 225 203 216 213 204 199
172 176 163 80 16 353 349 336 321 310 309 312 308 307 296 291 288 282 273 270 271 270 264 261 259 252 250 252 251 249 246 244 244 246 238 254 231 244 228 222 216 213 207
221 218 229 220 238 253 295 319 304 305 298 302 303 303 308 308 304 301 289 279 274 272 270 267 262 259 254 255 253 252 250 249 248 248 242 242 250 243 232 229 221 211 214
226 237 255 262 269 283 272 285 285 300 307 304 296 297 298 296 294 312 292 294 292 288 281 276 268 263 262 262 261 259 256 249 250 252 252 246 245 244 226 229 231 219 217
235 201 248 284 298 302 294 285 289 287 291 294 290 286 287 285 281 281 288 291 295 290 290 288 277 270 262 259 258 257 253 253 254 254 256 259 246 242 231 239 240 233 228
227 239 276 290 296 300 298 298 298 290 292 288 289 291 288 289 288 290 289 290 293 306 291 282 288 290 277 269 263 260 260 260 258 256 258 258 248 247 233 238 244 241 234
250 249 281 285 293 297 298 302 301 298 296 294 291 290 293 295 297 298 296 291 291 298 300 293 295 289 282 283 280 273 264 263 261 259 261 259 248 243 242 237 246 247 242
230 250 258 273 294 302 305 311 312 311 308 304 300 300 301 297 298 297 293 289 287 289 292 292 290 296 291 292 288 278 273 265 261 261 259 260 245 248 248 239 243 246 239
253 263 256 280 300 305 312 315 317 321 322 316 318 321 316 308 305 304 299 294 288 287 285 288 290 293 296 294 293 290 291 282 277 269 265 260 248 250 249 241 247 243 235
238 220 223 268 290 303 308 309 313 312 312 320 327 327 326 325 317 309 306 304 303 301 296 287 282 285 287 285 287 286 289 290 289 281 275 268 263 262 254 250 246 249 246
218 205 224 254 276 290 304 313 318 321 320 324 314 318 323 317 315 317 312 307 307 301 297 299 297 295 293 292 290 287 285 285 285 286 295 279 277 273 267 261 252 249 251
203 203 213 249 265 284 300 308 313 317 314 305 306 305 301 305 305 305 306 309 309 307 306 306 303 300 298 295 293 290 288 289 287 288 290 285 285 282 279 276 273 260 254
137 141 207 258 289 296 302 302 304 304 295 300 306 308 308 305 308 305 303 303 304 306 310 312 312 305 303 307 306 301 295 290 281 282 284 285 286 286 288 283 279 274 272
98 234 289 263 277 294 309 312 312 315 317 322 325 325 314 313 313 314 316 311 307 303 310 317 311 318 316 316 313 312 306 295 294 286 285 288 290 288 287 285 283 280 278
216 219 227 241 252 269 295 303 308 313 312 319 323 316 313 315 322 320 312 309 308 304 297 310 316 317 314 311 306 314 314 314 279 291 287 295 330 316 328 328 307 290 284
219 229 236 253 261 287 286 287 297 305 303 317 324 320 325 325 322 312 313 314 315 313 306 305 308 311 312 308 301 275 310 310 330 307 306 309 311 316 316 316 321 325 319
284 261 253 257 277 281 278 280 293 296 301 317 321 319 321 324 316 313 320 328 339 335 328 317 314 299 305 301 311 308 302 297 302 309 299 302 306 312 318 321 325 322 318
297 292 282 280 281 276 271 276 285 287 295 310 315 316 320 320 319 314 324 334 333 335 327 321 315 308 299 306 307 313 311 308 307 270 305 316 310 306 306 308 308 308 308
271 269 281 281 282 278 273 276 279 285 300 308 315 317 321 312 323 313 319 318 320 316 321 319 311 305 302 298 293 303 300 292 294 285 273 297 290 307 307 303 304 307 310